User: anonymous   Login
Location: Seminole
(32.7190°N, 102.6440°W)
Time: 12:25:09
(UTC-05:00)
Language:

Meteor 2-10 - Orbit

View from above orbital plane
View from above orbital plane
View from above satellite
View from above satellite

Ground track
Ground track

The orbit data is extracted from the following two-line orbital elements,

1 14452U 83109A   16121.17946189  .00000064  00000-0  19859-4 0  9999
2 14452  81.1597 133.1849 0091680 138.5357 222.2828 14.26394371690140
Epoch (UTC): 30 April 2016 04:18:25
Eccentricity: 0.0091680
inclination: 81.1597°
perigee height: 738 km
apogee height: 869 km
right ascension of ascending node: 133.1849°
argument of perigee: 138.5357°
revolutions per day: 14.26394371
mean anomaly at epoch: 222.2828°
orbit number at epoch: 69014

The dashed part of the orbit path shows where the satellite is in the earth's shadow,  

DLR